Regional Weather Roundup
Issued by NWS

Home | Current Version | Previous Version | Text Only | Print | Product List | Glossary On
Versions: 1 2 3 4 5 6 7 8 9 10 11 12 13 14 15 16 17 18 19 20 21 22 23 24 25 26 27 28 29 30 31 32 33 34 35 36 37 38 39 40 41 42 43 44 45 46 47 48 49 50
000
ASUS43 KLMK 031310
RWRKY
KENTUCKY REGIONAL WEATHER ROUNDUP
NATIONAL WEATHER SERVICE LOUISVILLE KY
900 AM EDT MON AUG 03 2015

NOTE "FAIR" INDICATES FEW OR NO CLOUDS BELOW 12,000 FEET
WITH NO SIGNIFICANT WEATHER AND/OR OBSTRUCTIONS TO VISIBILITY.

KYZ001>023-026-027-061>063-070>075-031400-
WESTERN AND SOUTH CENTRAL KENTUCKY

CITY           SKY/WX    TMP DP  RH WIND       PRES   REMARKS
PADUCAH        SUNNY     79  71  76 W6        29.91R
HENDERSON      SUNNY     79  70  73 SW6       29.87R
OWENSBORO      SUNNY     78  70  76 SW7       29.89R
HOPKINSVILLE   SUNNY     76  67  73 SW7       29.93R
BOWLING GREEN  MOSUNNY   76  64  66 S6        29.94R
GLASGOW        SUNNY    N/A N/A N/A SW3       29.94R
$$

KYZ024-025-028>034-038-045-046-053-031400-
NORTH CENTRAL KENTUCKY

CITY           SKY/WX    TMP DP  RH WIND       PRES   REMARKS
LOUISVILLE/SDF CLOUDY    72  60  66 E18       29.93R
LOUISVILLE/LOU CLOUDY    71  60  68 E13G21    29.94R
FORT KNOX      PTSUNNY   73  64  72 S5        29.89S
$$

KYZ035>037-039>044-047>052-055>060-089>105-031400-
NORTHEAST KENTUCKY

CITY           SKY/WX    TMP DP  RH WIND       PRES   REMARKS
LEXINGTON      PTSUNNY   67  62  84 E15G23    29.96F
COVINGTON      PTSUNNY   65  65 100 S8        29.90F
FRANKFORT      PTSUNNY   67  62  84 E7        29.96F
$$

KYZ054-064>069-076>088-106>120-031400-
SOUTHEAST KENTUCKY

CITY           SKY/WX    TMP DP  RH WIND       PRES   REMARKS
JACKSON        MOSUNNY   70  63  78 CALM      30.03R
LONDON         MOSUNNY   69  62  78 CALM      29.99R
SOMERSET       PTSUNNY   64  64 100 CALM      29.98R
MIDDLESBORO    CLOUDY    61  61 100 CALM      30.01S FOG
MONTICELLO     SUNNY     71  66  84 CALM      29.99S
$$




USA.gov is the U.S. government's official web portal to all federal, state and local government web resources and services.